TimeEDT,TemperatureF,Dew PointF,Humidity,Sea Level PressureIn,VisibilityMPH,Wind Direction,Wind SpeedMPH,Gust SpeedMPH,PrecipitationIn,Events,Conditions,WindDirDegrees,DateUTC
12:54 AM,79.0,71.1,77,30.19,10.0,SE,8.1,-,N/A,,Overcast,130,2013-07-15 04:54:00
1:54 AM,77.0,70.0,79,30.20,10.0,SSE,5.8,-,N/A,,Mostly Cloudy,150,2013-07-15 05:54:00
2:54 AM,75.9,70.0,82,30.19,10.0,ESE,4.6,-,N/A,,Mostly Cloudy,120,2013-07-15 06:54:00
3:54 AM,75.0,70.0,84,30.19,10.0,ESE,6.9,-,N/A,,Mostly Cloudy,120,2013-07-15 07:54:00
4:54 AM,75.0,70.0,84,30.19,10.0,ESE,5.8,-,N/A,,Scattered Clouds,120,2013-07-15 08:54:00
5:54 AM,73.9,70.0,87,30.22,10.0,ESE,6.9,-,N/A,,Scattered Clouds,120,2013-07-15 09:54:00
6:54 AM,73.9,70.0,87,30.23,10.0,ESE,6.9,-,N/A,,Scattered Clouds,120,2013-07-15 10:54:00
7:54 AM,75.9,69.1,79,30.25,10.0,SSE,8.1,-,N/A,,Partly Cloudy,150,2013-07-15 11:54:00
8:54 AM,79.0,70.0,74,30.26,10.0,South,8.1,-,N/A,,Partly Cloudy,170,2013-07-15 12:54:00
9:54 AM,82.0,69.1,65,30.27,10.0,South,11.5,-,N/A,,Scattered Clouds,190,2013-07-15 13:54:00
10:54 AM,84.0,69.1,61,30.27,10.0,SSW,10.4,-,N/A,,Scattered Clouds,200,2013-07-15 14:54:00
11:54 AM,82.0,68.0,62,30.28,10.0,South,6.9,-,N/A,,Mostly Cloudy,170,2013-07-15 15:54:00
12:54 PM,82.9,69.1,63,30.28,10.0,SW,5.8,-,N/A,,Mostly Cloudy,220,2013-07-15 16:54:00
1:54 PM,86.0,70.0,59,30.27,10.0,South,8.1,-,N/A,,Mostly Cloudy,190,2013-07-15 17:54:00
2:54 PM,87.1,69.1,55,30.26,10.0,Variable,6.9,-,N/A,,Scattered Clouds,0,2013-07-15 18:54:00
3:54 PM,87.1,68.0,53,30.25,10.0,SSW,4.6,-,N/A,,Scattered Clouds,210,2013-07-15 19:54:00
4:54 PM,88.0,69.1,53,30.24,10.0,South,9.2,-,N/A,,Scattered Clouds,180,2013-07-15 20:54:00
5:54 PM,88.0,69.1,53,30.23,10.0,SE,8.1,-,N/A,,Scattered Clouds,140,2013-07-15 21:54:00
6:54 PM,87.1,68.0,53,30.22,10.0,South,5.8,-,N/A,,Scattered Clouds,170,2013-07-15 22:54:00
7:54 PM,84.0,68.0,58,30.22,10.0,South,4.6,-,N/A,,Scattered Clouds,170,2013-07-15 23:54:00
8:54 PM,82.9,68.0,60,30.23,10.0,South,5.8,-,N/A,,Scattered Clouds,180,2013-07-16 00:54:00
9:54 PM,82.0,66.9,60,30.24,10.0,South,3.5,-,N/A,,Partly Cloudy,180,2013-07-16 01:54:00
10:54 PM,81.0,68.0,65,30.27,10.0,SSE,3.5,-,N/A,,Partly Cloudy,150,2013-07-16 02:54:00
11:54 PM,80.1,66.9,64,30.27,10.0,South,3.5,-,N/A,,Clear,170,2013-07-16 03:54:00